{"data":{"norad_id":48557,"epoch":"2026-05-25T03:04:19.574112Z","epoch_age_seconds":63891,"freshness":"FRESH","line1":"1 48557U 21041E   26145.12800433  .00001678  00000+0  65818-4 0  9999","line2":"2 48557  53.1576 131.3388 0001459  97.1260 262.9907 15.31708118276981","mean_motion":15.31708118,"eccentricity":0.0001459,"inclination_deg":53.1576,"raan_deg":131.3388,"arg_perigee_deg":97.126,"mean_anomaly_deg":262.9907,"bstar":6.5818e-5,"rev_number":27698,"period_min":94.012689694447,"perigee_km":469.71654837402,"apogee_km":471.71504361989,"semimajor_km":6848.852795997,"source":"CELESTRAK","updated_at":"2026-05-25T13:38:16.725003Z"}}